COSMOS 1275 DEB, 12737

Orbit data source: Space-Track

COSMOS 1275 DEB, 12737 is space debris in LEO originally from a launch on Thu, 04 Jun 1981 UTC launched from the Plesetsk Missile And Space Complex (PKMTR). Debris objects in space refer to the collection of defunct objects orbiting the Earth. Examples of debris include non-operational satellites, rocket bodies, and fragments generated from explosions, collisions, or faulty payload assembly.

Loading next visibility...
Identifier
12737, 1981-053CE
Orbit
LEO
Country
Flag of CISCIS
Related business
Manufacturer
Unknown
Mission
Spacecraft
Bus & Motor
Unknown
Mass
Unknown
Launch date (UTC)
1981-06-04 (45 years ago)
Launch vehicle
Unknown
Launch site
Plesetsk Missile And Space Complex (PKMTR)
Object type
Payload
Rocket body
Debris
Shape & HBR
Unknown shape, 0.2 m
Radar Cross Section
Medium (>0.1 m² and <1 m²)

Expand to show TLE details & history
Last TLE update: 14 hours ago

TLE from 14 hours ago
0 COSMOS 1275 DEB
1 12737U 81053CE  26236.30822057  .00000896  00000-0  87745-3 0  9990
2 12737  82.9796 227.3628 0145264 283.0688 141.6978 13.73664123236115
Epoch: 2026-08-24T07:23Z
TLE epoch observation values (Epoch: 2026-08-24T07:23:50.257Z)
Latitude
64.93002°
Longitude
158.99443°
Altitude
1,082.208 km
Speed
7.275 km/s
True Right ascension
16h 10m 10s
True Declination
64° 48' 13"
Sunlit
Object was in daylight at epoch
Visualization orbit readout
Latitude
Unknown
Longitude
Unknown
Altitude
Unknown
Speed
Unknown
Apparent Right ascension
Unknown
Apparent Declination
Unknown
Sunlit
N/A
Visualization observer readout
Local Sidereal Time
12:11:07
Azimuth
Unknown
Elevation
Unknown
Doppler factor
Unknown
Orbital elements
Apogee altitude
1,090.533 km
Perigee altitude
876.655 km
Semi-major axis
7,361.731 km
Eccentricity
0.01453
Inclination
82.9796°
RAAN
227.3628°
Arg. of periapsis
283.0688°
True anomaly
142.71498°
Mean anomaly
141.6978°
Eccentric anomaly
142.20783°
Mean motion
3.43616 °/min
Orbital period
104.77 mins
BSTAR
0.00087745
Loading maneuver chart data...
Computing Atmospheric mass density...

Documentation

Showing up to 5 results
|